Weather observations for the past three days for
Payson Airport
| Date | Time (mst) | Wind (kph) | Vis. (km) | Weather | Sky Cond. | Temperature (ºC) | Relative Humidity | Wind Chill (°C) | Heat Index (°C) | Pressure | Precipitation (cm) | ||||||
|---|---|---|---|---|---|---|---|---|---|---|---|---|---|---|---|---|---|
| Air | Dwpt | 6 hour | altimeter (cm) | sea level (mb) | 1 hr | 3 hr | 6 hr | ||||||||||
| Max. | Min. | ||||||||||||||||
| 06 | 18:35 | SW 17 G 26 | 16.09 | Mostly Cloudy | BKN100 | 20 | -2 | 23% | 76.33 | 0.0 | |||||||
| 06 | 18:15 | W 15 | 16.09 | Partly Cloudy | SCT110 | 20 | -2 | 23% | 76.33 | 0.0 | |||||||
| 06 | 17:55 | W 19 G 26 | 16.09 | Partly Cloudy | SCT100 | 21 | -3 | 20% | 76.33 | 0.0 | |||||||
| 06 | 17:35 | W 13 G 28 | 16.09 | Partly Cloudy | SCT100 | 21 | -3 | 20% | 76.3 | 0.0 | |||||||
| 06 | 17:15 | SW 11 | 16.09 | Partly Cloudy | SCT100 | 21 | -3 | 20% | 76.3 | 0.0 | |||||||
| 06 | 16:55 | W 19 | 16.09 | Mostly Cloudy | BKN090 | 21 | -3 | 20% | 76.28 | 0.0 | |||||||
| 06 | 16:35 | SW 22 G 28 | 16.09 | Overcast | OVC090 | 21 | -3 | 20% | 76.28 | 0.0 | |||||||
| 06 | 16:15 | SW 15 | 16.09 | Mostly Cloudy | BKN090 | 20 | -3 | 21% | 76.3 | 0.0 | |||||||
| 06 | 15:55 | SW 19 G 30 | 16.09 | A Few Clouds | FEW090 | 20 | -3 | 21% | 76.3 | 0.0 | |||||||
| 06 | 15:35 | W 17 G 28 | 16.09 | Fair | CLR | 21 | -3 | 20% | 76.33 | 0.0 | |||||||
| 06 | 15:15 | S 19 G 35 | 16.09 | Fair | CLR | 20 | -3 | 21% | 76.33 | 0.0 | |||||||
| 06 | 14:55 | W 17 G 30 | 16.09 | Fair | CLR | 20 | -3 | 21% | 76.35 | 0.0 | |||||||
| 06 | 14:35 | SW 13 | 16.09 | Fair | CLR | 19 | -2 | 24% | 76.35 | 0.0 | |||||||
| 06 | 14:15 | SW 13 G 33 | 16.09 | Fair | CLR | 20 | -2 | 23% | 76.38 | 0.0 | |||||||
| 06 | 13:55 | SW 17 G 35 | 16.09 | Fair | CLR | 19 | -3 | 22% | 76.4 | 0.0 | |||||||
| 06 | 13:35 | SW 19 G 31 | 16.09 | Fair | CLR | 19 | -2 | 24% | 76.4 | 0.0 | |||||||
| 06 | 13:15 | SW 19 G 28 | 16.09 | Fair | CLR | 18 | -2 | 26% | 76.4 | 0.0 | |||||||
| 06 | 12:55 | W 15 G 30 | 16.09 | Fair | CLR | 18 | -2 | 26% | 76.43 | 0.0 | |||||||
| 06 | 12:35 | W 15 G 28 | 16.09 | Fair | CLR | 18 | -2 | 26% | 76.43 | 0.0 | |||||||
| 06 | 12:15 | W 15 | 16.09 | Fair | CLR | 18 | -2 | 26% | 76.43 | 0.0 | |||||||
| 06 | 11:55 | Vrbl 11 G 26 | 16.09 | Fair | CLR | 17 | -2 | 27% | 76.45 | 0.0 | |||||||
| 06 | 11:35 | SW 13 | 16.09 | Fair | CLR | 16 | -2 | 29% | 76.45 | 0.0 | |||||||
| 06 | 11:15 | Vrbl 9 | 16.09 | Fair | CLR | 16 | -2 | 29% | 76.45 | 0.0 | |||||||
| 06 | 10:55 | W 15 | 16.09 | Fair | CLR | 16 | -2 | 29% | 76.48 | 0.0 | |||||||
| 06 | 10:35 | W 17 | 16.09 | Fair | CLR | 15 | -1 | 34% | 76.48 | 0.0 | |||||||
| 06 | 10:15 | NW 15 | 16.09 | Fair | CLR | 15 | -1 | 34% | 76.48 | 0.0 | |||||||
| 06 | 09:55 | W 13 | 16.09 | Fair | CLR | 14 | -1 | 36% | 76.48 | 0.0 | |||||||
| 06 | 09:35 | SW 15 | 16.09 | Fair | CLR | 14 | -1 | 36% | 76.45 | 0.0 | |||||||
| 06 | 09:15 | Vrbl 11 | 16.09 | Fair | CLR | 13 | -2 | 36% | 76.45 | 0.0 | |||||||
| 06 | 08:55 | Vrbl 7 | 16.09 | Fair | CLR | 13 | -1 | 38% | 76.45 | 0.0 | |||||||
| 06 | 08:35 | Vrbl 6 | 16.09 | Fair | CLR | 13 | 0 | 41% | 76.45 | 0.0 | |||||||
| 06 | 08:15 | Vrbl 4 | 16.09 | Fair | CLR | 12 | 0 | 44% | 76.45 | 0.0 | |||||||
| 06 | 07:55 | Vrbl 4 | 16.09 | Fair | CLR | 11 | -1 | 44% | 76.43 | 0.0 | |||||||
| 06 | 07:35 | Vrbl 2 | 16.09 | Fair | CLR | 11 | 0 | 47% | 76.43 | 0.0 | |||||||
| 06 | 07:15 | N 6 | 16.09 | Fair | CLR | 9 | 1 | 58% | 76.43 | 0.0 | |||||||
| 06 | 06:55 | NE 4 | 16.09 | Fair | CLR | 8 | 1 | 62% | 76.43 | 0.0 | |||||||
| 06 | 06:35 | N 4 | 16.09 | Fair | CLR | 5 | 0 | 70% | 76.43 | 0.0 | |||||||
| 06 | 06:15 | Vrbl 4 | 16.09 | Fair | CLR | 5 | 0 | 70% | 76.4 | 0.0 | |||||||
| 06 | 05:55 | N 4 | 16.09 | Fair | CLR | 4 | 0 | 75% | 76.38 | 0.0 | |||||||
| 06 | 05:35 | Vrbl 2 | 16.09 | Fair | CLR | 3 | 0 | 81% | 76.35 | 0.0 | |||||||
| 06 | 05:15 | Vrbl 6 | 16.09 | Fair | CLR | 4 | -1 | 70% | 76.33 | 0.0 | |||||||
| 06 | 04:55 | E 6 | 16.09 | Fair | CLR | 6 | 0 | 66% | 76.33 | 0.0 | |||||||
| 06 | 04:35 | NE 4 | 16.09 | Fair | CLR | 4 | 0 | 75% | 76.33 | 0.0 | |||||||
| 06 | 04:15 | Vrbl 4 | 16.09 | Fair | CLR | 4 | 0 | 75% | 76.33 | 0.0 | |||||||
| 06 | 03:55 | N 6 | 16.09 | Fair | CLR | 4 | 0 | 75% | 76.33 | 0.0 | |||||||
| 06 | 03:35 | NW 4 | 16.09 | Fair | CLR | 4 | 0 | 75% | 76.3 | 0.0 | |||||||
| 06 | 03:15 | N 6 | 16.09 | Fair | CLR | 4 | 0 | 75% | 76.3 | 0.0 | |||||||
| 06 | 02:55 | N 4 | 16.09 | Fair | CLR | 6 | -1 | 61% | 76.3 | 0.0 | |||||||
| 06 | 02:35 | NE 6 | 16.09 | Fair | CLR | 5 | 0 | 70% | 76.3 | 0.0 | |||||||
| 06 | 02:15 | N 4 | 16.09 | Fair | CLR | 5 | 0 | 70% | 76.28 | 0.0 | |||||||
| 06 | 01:55 | N 4 | 16.09 | Fair | CLR | 5 | 0 | 70% | 76.28 | 0.0 | |||||||
| 06 | 01:35 | N 4 | 16.09 | Fair | CLR | 5 | 0 | 70% | 76.28 | 0.0 | |||||||
| 06 | 01:15 | N 4 | 16.09 | Fair | CLR | 6 | 0 | 66% | 76.28 | 0.0 | |||||||
| 06 | 00:55 | N 4 | 16.09 | Fair | CLR | 6 | 0 | 66% | 76.28 | 0.0 | |||||||
| 06 | 00:35 | NW 4 | 16.09 | Fair | CLR | 6 | 0 | 66% | 76.28 | 0.0 | |||||||
| 06 | 00:15 | N 4 | 16.09 | Fair | CLR | 7 | 0 | 61% | 76.28 | 0.0 | |||||||
| 05 | 23:55 | N 4 | 16.09 | Fair | CLR | 7 | -1 | 57% | 76.28 | 0.0 | |||||||
| 05 | 23:35 | N 4 | 16.09 | Fair | CLR | 7 | 0 | 61% | 76.28 | 0.0 | |||||||
| 05 | 22:55 | Vrbl 2 | 16.09 | Fair | CLR | 9 | -1 | 50% | 76.25 | 0.0 | |||||||
| 05 | 22:35 | W 6 | 16.09 | Fair | CLR | 9 | -1 | 50% | 76.25 | 0.0 | |||||||
| 05 | 22:15 | W 7 | 16.09 | Fair | CLR | 10 | -1 | 47% | 9 | 76.25 | 0.0 | ||||||
| 05 | 21:55 | W 7 | 16.09 | Fair | CLR | 10 | -1 | 47% | 9 | 76.25 | 0.0 | ||||||
| 05 | 21:35 | W 7 | 16.09 | Fair | CLR | 10 | -1 | 47% | 9 | 76.23 | 0.0 | ||||||
| 05 | 21:15 | SW 6 | 16.09 | A Few Clouds | FEW060 | 10 | -1 | 47% | 76.23 | 0.0 | |||||||
| 05 | 20:55 | S 6 | 16.09 | Partly Cloudy | SCT060 | 10 | -1 | 47% | 76.2 | 0.0 | |||||||
| 05 | 20:35 | Vrbl 4 | 16.09 | Fair | CLR | 10 | -1 | 47% | 76.17 | 0.0 | |||||||
| 05 | 20:15 | SW 6 | 16.09 | Fair | CLR | 10 | -1 | 47% | 76.17 | 0.0 | |||||||
| 05 | 19:55 | SW 7 | 16.09 | Fair | CLR | 11 | -2 | 41% | 76.15 | 0.0 | |||||||
| 05 | 19:35 | SW 15 | 16.09 | Fair | CLR | 11 | -2 | 41% | 76.12 | 0.0 | |||||||
| 05 | 19:15 | SW 13 | 16.09 | Fair | CLR | 12 | -2 | 38% | 76.1 | 0.0 | |||||||
| 05 | 18:55 | SW 15 G 26 | 16.09 | Fair | CLR | 12 | -2 | 38% | 76.07 | 0.0 | |||||||
| 05 | 18:35 | SW 20 G 28 | 16.09 | Fair | CLR | 13 | -3 | 33% | 76.07 | 0.0 | |||||||
| 05 | 18:15 | SW 20 G 30 | 16.09 | A Few Clouds | FEW080 | 13 | -3 | 33% | 76.05 | 0.0 | |||||||
| 05 | 17:55 | SW 20 G 28 | 16.09 | Partly Cloudy | SCT080 | 14 | -3 | 31% | 76.02 | 0.0 | |||||||
| 05 | 17:35 | SW 22 G 35 | 16.09 | Mostly Cloudy | FEW065 BKN080 | 15 | -3 | 29% | 76.02 | 0.0 | |||||||
| 05 | 17:15 | SW 28 G 39 | 16.09 | Partly Cloudy | FEW065 SCT080 SCT090 | 14 | -3 | 31% | 76 | 0.0 | |||||||
| 05 | 16:55 | SW 19 G 39 | 16.09 | Mostly Cloudy | BKN060 BKN080 | 14 | -4 | 29% | 76 | 0.0 | |||||||
| 05 | 16:35 | W 22 G 30 | 16.09 | Overcast | OVC060 | 15 | -1 | 34% | 76 | 0.0 | |||||||
| 05 | 16:15 | SW 15 G 33 | 16.09 | Mostly Cloudy | BKN060 BKN070 BKN100 | 14 | -1 | 36% | 75.97 | 0.0 | |||||||
| 05 | 15:55 | SW 15 G 26 | 16.09 | Fair | CLR | 15 | -1 | 34% | 75.97 | 0.0 | |||||||
| 05 | 15:35 | W 17 G 26 | 16.09 | Partly Cloudy | FEW049 FEW070 SCT095 | 15 | 1 | 39% | 75.97 | 0.0 | |||||||
| 05 | 15:15 | SW 15 G 28 | 16.09 | Mostly Cloudy | SCT050 SCT075 BKN095 | 14 | 1 | 41% | 76 | 0.0 | |||||||
| 05 | 14:55 | SW 17 G 33 | 16.09 | Mostly Cloudy | SCT050 BKN095 | 14 | 1 | 41% | 76 | 0.0 | |||||||
| 05 | 14:35 | SW 22 G 28 | 16.09 | Fair | CLR | 15 | 1 | 39% | 76.02 | 0.0 | |||||||
| 05 | 14:15 | W 17 G 33 | 16.09 | A Few Clouds | FEW075 FEW090 | 15 | 1 | 39% | 76.02 | 0.0 | |||||||
| 05 | 13:55 | W 24 G 31 | 16.09 | Partly Cloudy | FEW070 SCT090 | 14 | 3 | 48% | 76.05 | 0.0 | |||||||
| 05 | 13:35 | SW 20 G 33 | 16.09 | Mostly Cloudy | SCT045 SCT065 BKN070 | 13 | 4 | 55% | 76.05 | 0.0 | |||||||
| 05 | 13:15 | SW 20 G 35 | 16.09 | Thunderstorm in Vicinity | BKN037 BKN050 BKN075 | 14 | 5 | 55% | 76.05 | 0.0 | |||||||
| 05 | 12:55 | SW 15 G 30 | 16.09 | Overcast | BKN035 BKN043 OVC070 | 12 | 6 | 67% | 76.07 | 0.0 | |||||||
| 05 | 12:35 | W 15 G 30 | 16.09 | Overcast | SCT030 BKN040 OVC070 | 11 | 6 | 72% | 76.1 | 0.0 | |||||||
| 05 | 12:15 | W 20 | 16.09 | Thunderstorm | SCT013 BKN020 OVC036 | 11 | 8 | 82% | 76.1 | 0.0 | |||||||
| 05 | 11:55 | SW 15 | 16.09 | Mostly Cloudy | SCT017 SCT023 BKN042 | 12 | 7 | 72% | 76.1 | 0.0 | |||||||
| 05 | 11:35 | SW 20 G 31 | 16.09 | Light Rain | SCT018 SCT050 BKN070 | 13 | 8 | 72% | 76.1 | 0.0 | |||||||
| 05 | 11:15 | S 15 G 28 | 16.09 | Mostly Cloudy | SCT049 BKN060 BKN070 | 12 | 9 | 82% | 76.1 | 0.0 | |||||||
| 05 | 10:55 | S 15 G 30 | 16.09 | Mostly Cloudy | SCT047 BKN060 BKN070 | 11 | 9 | 88% | 76.1 | 0.0 | |||||||
| 05 | 10:35 | S 19 G 30 | 16.09 | Light Drizzle | SCT006 SCT024 BKN034 | 10 | 9 | 94% | 8 | 76.1 | 0.0 | ||||||
| 05 | 10:15 | S 17 | 16.09 | Overcast | SCT006 BKN019 OVC050 | 10 | 10 | 100% | 8 | 76.1 | 0.0 | ||||||
| 05 | 09:55 | Vrbl 11 | 16.09 | Light Rain | BKN006 BKN014 BKN045 | 10 | 9 | 94% | 9 | 76.1 | 0.0 | 0.05 | |||||
| 05 | 09:35 | Vrbl 9 | 14.48 | Light Drizzle | BKN006 BKN022 BKN055 | 9 | 9 | 100% | 8 | 76.1 | 0.0 | ||||||
| 05 | 09:15 | SW 9 | 6.44 | Light Rain Fog/Mist | SCT006 BKN018 OVC030 | 9 | 9 | 100% | 8 | 76.12 | 0.0 | ||||||
| 05 | 08:55 | SW 9 | 2.82 | Light Rain Fog/Mist | SCT006 SCT010 OVC018 | 9 | 8 | 94% | 8 | 76.1 | 0.0 | 0.08 | |||||
| 05 | 08:35 | SW 7 | 11.27 | Light Rain Haze | BKN018 BKN026 OVC034 | 10 | 6 | 76% | 9 | 76.1 | 0.0 | ||||||
| 05 | 08:15 | Vrbl 6 | 16.09 | Overcast | SCT020 BKN027 OVC033 | 10 | 7 | 82% | 76.07 | 0.0 | |||||||
| 05 | 07:55 | Vrbl 9 | 16.09 | Overcast | SCT010 BKN028 OVC033 | 9 | 7 | 87% | 8 | 76.07 | 0.0 | ||||||
| 05 | 07:35 | Vrbl 7 | 16.09 | Overcast | SCT010 SCT016 OVC028 | 9 | 7 | 87% | 8 | 76.1 | 0.0 | ||||||
| 05 | 07:15 | Vrbl 9 | 14.48 | Light Drizzle | BKN010 OVC016 | 9 | 7 | 87% | 8 | 76.1 | 0.0 | ||||||
| 05 | 06:55 | S 9 | 16.09 | Overcast | BKN012 BKN018 OVC035 | 9 | 7 | 87% | 8 | 76.1 | 0.0 | ||||||
| 05 | 06:35 | Vrbl 6 | 16.09 | Overcast | FEW009 BKN036 OVC044 | 9 | 7 | 87% | 76.07 | 0.0 | |||||||
| 05 | 06:15 | Vrbl 6 | 16.09 | Overcast | OVC044 | 9 | 7 | 87% | 76.07 | 0.0 | |||||||
| 05 | 05:55 | Vrbl 4 | 16.09 | Overcast | SCT028 OVC044 | 9 | 7 | 87% | 76.05 | 0.0 | |||||||
| 05 | 05:35 | S 6 | 16.09 | Overcast | SCT024 BKN030 OVC044 | 9 | 7 | 87% | 76.05 | 0.0 | |||||||
| 05 | 05:15 | Vrbl 4 | 16.09 | Overcast | BKN026 OVC032 | 9 | 7 | 87% | 76.05 | 0.0 | |||||||
| 05 | 04:55 | SE 4 | 16.09 | Overcast | BKN026 OVC046 | 9 | 7 | 87% | 76.05 | 0.0 | |||||||
| 05 | 04:35 | Vrbl 6 | 16.09 | Light Rain | BKN026 OVC048 | 9 | 7 | 87% | 76.07 | 0.0 | |||||||
| 05 | 04:15 | Vrbl 6 | 16.09 | Overcast | BKN026 BKN035 OVC055 | 9 | 6 | 82% | 76.1 | 0.0 | |||||||
| 05 | 03:55 | S 7 | 16.09 | Overcast | SCT036 BKN045 OVC055 | 9 | 6 | 82% | 8 | 76.1 | 0.0 | ||||||
| 05 | 03:35 | Vrbl 7 | 16.09 | Overcast | OVC036 | 10 | 6 | 76% | 9 | 76.1 | 0.0 | ||||||
| 05 | 03:15 | SW 9 | 16.09 | Overcast | BKN034 OVC041 | 10 | 5 | 71% | 9 | 76.15 | 0.0 | ||||||
| 05 | 02:55 | Vrbl 6 | 16.09 | Overcast | BKN034 OVC040 | 10 | 4 | 67% | 76.12 | 0.0 | |||||||
| 05 | 02:35 | SW 7 | 16.09 | Overcast | SCT033 BKN039 OVC090 | 10 | 4 | 67% | 9 | 76.15 | 0.0 | ||||||
| 05 | 02:15 | Vrbl 7 | 16.09 | Mostly Cloudy | SCT035 BKN046 BKN065 | 9 | 5 | 76% | 8 | 76.12 | 0.0 | ||||||
| 05 | 01:55 | S 15 G 28 | 8.05 | Light Drizzle Haze | FEW019 FEW027 OVC034 | 9 | 5 | 76% | 7 | 76.15 | 0.0 | ||||||
| 05 | 01:35 | S 22 G 37 | 16.09 | Overcast | BKN034 OVC044 | 11 | 1 | 50% | 76.17 | 0.0 | |||||||
| 05 | 01:15 | S 22 G 33 | 16.09 | Overcast | BKN034 OVC044 | 11 | 1 | 50% | 76.17 | 0.0 | |||||||
| 05 | 00:55 | S 19 G 31 | 16.09 | Overcast | BKN034 BKN043 OVC050 | 12 | 2 | 51% | 76.17 | 0.0 | |||||||
| 05 | 00:35 | S 15 G 31 | 16.09 | Overcast | SCT038 BKN046 OVC050 | 12 | 3 | 54% | 76.2 | 0.0 | |||||||
| 05 | 00:15 | S 13 | 16.09 | Overcast | SCT042 BKN048 OVC070 | 12 | 4 | 58% | 76.2 | 0.0 | |||||||
| 04 | 23:55 | S 15 | 16.09 | Overcast | BKN042 BKN050 OVC070 | 12 | 5 | 63% | 76.17 | 0.0 | |||||||
| 04 | 23:35 | S 11 G 26 | 16.09 | Mostly Cloudy | BKN044 BKN120 | 12 | 4 | 58% | 76.17 | 0.0 | |||||||
| 04 | 23:15 | S 17 | 16.09 | Partly Cloudy | FEW045 SCT120 | 13 | 4 | 55% | 76.17 | 0.0 | |||||||
| 04 | 22:55 | S 13 | 16.09 | A Few Clouds | FEW044 FEW110 | 13 | 3 | 51% | 76.17 | 0.0 | |||||||
| 04 | 22:35 | Vrbl 11 | 16.09 | Partly Cloudy | SCT042 SCT120 | 13 | 3 | 51% | 76.23 | 0.0 | |||||||
| 04 | 22:15 | SW 9 | 16.09 | Mostly Cloudy | FEW044 SCT090 BKN120 | 13 | 3 | 51% | 76.25 | 0.0 | |||||||
| 04 | 21:55 | S 15 G 31 | 16.09 | Overcast | OVC090 | 13 | 3 | 51% | 76.25 | 0.0 | |||||||
| 04 | 21:35 | SW 17 | 16.09 | Mostly Cloudy | BKN090 | 13 | 3 | 51% | 76.23 | 0.0 | |||||||
| 04 | 21:15 | S 9 | 16.09 | Fair | CLR | 13 | 2 | 47% | 76.23 | 0.0 | |||||||
| 04 | 20:55 | Vrbl 7 | 16.09 | Fair | CLR | 14 | 2 | 44% | 76.23 | 0.0 | |||||||
| 04 | 20:35 | SW 13 | 16.09 | Fair | CLR | 14 | 2 | 44% | 76.2 | 0.0 | |||||||
| 04 | 20:15 | SW 15 | 16.09 | Fair | CLR | 14 | 2 | 44% | 76.2 | 0.0 | |||||||
| 04 | 19:55 | SW 15 | 16.09 | Fair | CLR | 14 | 1 | 41% | 76.17 | 0.0 | |||||||
| 04 | 19:35 | SW 15 G 28 | 16.09 | Fair | CLR | 14 | 1 | 41% | 76.17 | 0.0 | |||||||
| 04 | 19:15 | SW 19 | 16.09 | Fair | CLR | 15 | 0 | 36% | 76.17 | 0.0 | |||||||
| 04 | 18:55 | S 15 | 16.09 | Fair | CLR | 15 | -1 | 34% | 76.15 | 0.0 | |||||||
| 04 | 18:35 | S 13 G 28 | 16.09 | Fair | CLR | 15 | -2 | 31% | 76.17 | 0.0 | |||||||
| 04 | 18:15 | S 17 G 30 | 16.09 | Fair | CLR | 16 | -2 | 29% | 76.2 | 0.0 | |||||||
| 04 | 17:55 | S 22 G 33 | 16.09 | Fair | CLR | 17 | -1 | 30% | 76.17 | 0.0 | |||||||
| 04 | 17:35 | SW 13 G 28 | 16.09 | Fair | CLR | 17 | -1 | 30% | 76.17 | 0.0 | |||||||
| 04 | 17:15 | SW 15 G 26 | 16.09 | Fair | CLR | 17 | -1 | 30% | 76.17 | 0.0 | |||||||
| 04 | 16:55 | SW 15 G 26 | 16.09 | Fair | CLR | 17 | -2 | 27% | 76.2 | 0.0 | |||||||
| 04 | 16:35 | SW 19 G 28 | 16.09 | Fair | CLR | 17 | -2 | 27% | 76.2 | 0.0 | |||||||
| 04 | 16:15 | SW 22 G 30 | 16.09 | Fair | CLR | 17 | -4 | 24% | 76.2 | 0.0 | |||||||
| 04 | 15:55 | S 26 G 35 | 16.09 | Fair | CLR | 18 | -3 | 24% | 76.2 | 0.0 | |||||||
| 04 | 15:35 | SW 24 G 46 | 16.09 | Fair | CLR | 18 | -3 | 24% | 76.2 | 0.0 | |||||||
| 04 | 15:15 | SW 20 G 33 | 16.09 | Fair | CLR | 17 | -4 | 24% | 76.23 | 0.0 | |||||||
| 04 | 14:55 | SW 17 G 31 | 16.09 | Fair | CLR | 17 | -1 | 30% | 76.25 | 0.0 | |||||||
| 04 | 14:35 | SW 15 G 33 | 16.09 | Fair | CLR | 17 | -1 | 30% | 76.28 | 0.0 | |||||||
| 04 | 14:15 | SW 24 G 35 | 16.09 | Fair | CLR | 18 | 0 | 30% | 76.25 | 0.0 | |||||||
| 04 | 13:55 | S 19 G 37 | 16.09 | Fair | CLR | 18 | 1 | 32% | 76.25 | 0.0 | |||||||
| 04 | 13:35 | S 19 G 35 | 16.09 | Fair | CLR | 18 | 1 | 32% | 76.25 | 0.0 | |||||||
| 04 | 13:15 | SW 20 G 35 | 16.09 | Fair | CLR | 19 | 1 | 30% | 76.25 | 0.0 | |||||||
| 04 | 12:55 | S 20 G 39 | 16.09 | Fair | CLR | 19 | 1 | 30% | 76.25 | 0.0 | |||||||
| 04 | 12:35 | S 20 G 31 | 16.09 | Fair | CLR | 18 | 2 | 34% | 76.25 | 0.0 | |||||||
| 04 | 12:15 | S 20 G 33 | 16.09 | Fair | CLR | 18 | 2 | 34% | 76.25 | 0.0 | |||||||
| 04 | 11:55 | SW 19 G 30 | 16.09 | Fair | CLR | 17 | 3 | 39% | 76.28 | 0.0 | |||||||
| 04 | 11:35 | Vrbl 9 G 28 | 16.09 | Fair | CLR | 17 | 3 | 39% | 76.3 | 0.0 | |||||||
| 04 | 11:15 | S 13 | 16.09 | Fair | CLR | 17 | 5 | 45% | 76.3 | 0.0 | |||||||
| 04 | 10:55 | S 19 G 30 | 16.09 | Fair | CLR | 16 | 4 | 45% | 76.28 | 0.0 | |||||||
| 04 | 10:35 | S 19 G 33 | 16.09 | Fair | CLR | 16 | 4 | 45% | 76.33 | 0.0 | |||||||
| 04 | 10:15 | S 19 G 30 | 16.09 | Fair | CLR | 15 | 5 | 51% | 76.33 | 0.0 | |||||||
| 04 | 09:55 | S 15 | 16.09 | Fair | CLR | 15 | 4 | 48% | 76.33 | 0.0 | |||||||
| 04 | 09:35 | S 15 G 31 | 16.09 | Fair | CLR | 15 | 4 | 48% | 76.33 | 0.0 | |||||||
| 04 | 09:15 | S 20 | 16.09 | Fair | CLR | 15 | 4 | 48% | 76.3 | 0.0 | |||||||
| 04 | 08:55 | S 19 G 28 | 16.09 | Fair | CLR | 15 | 5 | 51% | 76.3 | 0.0 | |||||||
| 04 | 08:35 | S 19 G 33 | 16.09 | Fair | CLR | 15 | 5 | 51% | 76.3 | 0.0 | |||||||
| 04 | 08:15 | Vrbl 9 | 16.09 | Fair | CLR | 15 | 5 | 51% | 76.28 | 0.0 | |||||||
| 04 | 07:55 | S 13 | 16.09 | Fair | CLR | 14 | 5 | 55% | 76.28 | 0.0 | |||||||
| 04 | 07:35 | S 11 | 16.09 | Fair | CLR | 14 | 5 | 55% | 76.28 | 0.0 | |||||||
| 04 | 07:15 | S 11 | 16.09 | Fair | CLR | 14 | 5 | 55% | 76.28 | 0.0 | |||||||
| 04 | 06:55 | Vrbl 7 | 16.09 | Fair | CLR | 13 | 5 | 59% | 76.28 | 0.0 | |||||||
| 04 | 06:35 | S 11 | 16.09 | Fair | CLR | 13 | 5 | 59% | 76.28 | 0.0 | |||||||
| 04 | 06:15 | Vrbl 9 | 16.09 | Fair | CLR | 13 | 5 | 59% | 76.28 | 0.0 | |||||||
| 04 | 05:55 | Vrbl 7 | 16.09 | Fair | CLR | 13 | 5 | 59% | 76.25 | 0.0 | |||||||
| 04 | 05:35 | Vrbl 11 G 26 | 16.09 | Fair | CLR | 13 | 5 | 59% | 76.2 | 0.0 | |||||||
| 04 | 05:15 | Vrbl 9 | 16.09 | Fair | CLR | 13 | 4 | 55% | 76.2 | 0.0 | |||||||
| 04 | 04:55 | Vrbl 7 | 16.09 | Fair | CLR | 13 | 4 | 55% | 76.2 | 0.0 | |||||||
| 04 | 04:35 | SW 6 | 16.09 | Fair | CLR | 13 | 4 | 55% | 76.25 | 0.0 | |||||||
| 04 | 04:15 | Vrbl 9 | 16.09 | Fair | CLR | 13 | 4 | 55% | 76.23 | 0.0 | |||||||
| 04 | 03:55 | S 9 | 16.09 | Fair | CLR | 14 | 5 | 55% | 76.25 | 0.0 | |||||||
| 04 | 03:35 | SW 6 | 16.09 | Fair | CLR | 14 | 4 | 51% | 76.28 | 0.0 | |||||||
| 04 | 03:15 | SW 11 | 16.09 | Fair | CLR | 14 | 4 | 51% | 76.25 | 0.0 | |||||||
| 04 | 02:55 | Vrbl 11 | 16.09 | Fair | CLR | 14 | 4 | 51% | 76.28 | 0.0 | |||||||
| 04 | 02:35 | SW 15 G 26 | 16.09 | Fair | CLR | 14 | 3 | 48% | 76.23 | 0.0 | |||||||
| 04 | 02:15 | SW 15 | 16.09 | Fair | CLR | 14 | 2 | 44% | 76.23 | 0.0 | |||||||
| 04 | 01:55 | Vrbl 9 | 16.09 | Fair | CLR | 15 | 1 | 39% | 76.2 | 0.0 | |||||||
| 04 | 01:35 | Vrbl 9 | 16.09 | Fair | CLR | 15 | 0 | 36% | 76.23 | 0.0 | |||||||
| 04 | 01:15 | Vrbl 6 | 16.09 | Fair | CLR | 15 | 0 | 36% | 76.25 | 0.0 | |||||||
| 04 | 00:55 | S 9 | 16.09 | Fair | CLR | 15 | 0 | 36% | 76.25 | 0.0 | |||||||
| 04 | 00:35 | Vrbl 9 | 16.09 | Fair | CLR | 15 | 0 | 36% | 76.25 | 0.0 | |||||||
| 04 | 00:15 | SW 7 | 16.09 | Fair | CLR | 15 | -1 | 34% | 76.25 | 0.0 | |||||||
| 03 | 23:55 | Vrbl 6 | 16.09 | Fair | CLR | 16 | -2 | 29% | 76.25 | 0.0 | |||||||
| 03 | 23:35 | S 11 | 16.09 | Fair | CLR | 16 | -2 | 29% | 76.25 | 0.0 | |||||||
| 03 | 23:15 | S 9 | 16.09 | Fair | CLR | 16 | -3 | 27% | 76.25 | 0.0 | |||||||
| 03 | 22:55 | Vrbl 4 | 16.09 | Fair | CLR | 17 | -2 | 27% | 76.25 | 0.0 | |||||||
| 03 | 22:35 | Vrbl 6 | 16.09 | Fair | CLR | 17 | -3 | 25% | 76.25 | 0.0 | |||||||
| 03 | 22:15 | SW 9 G 26 | 16.09 | Fair | CLR | 18 | -3 | 24% | 76.25 | 0.0 | |||||||
| 03 | 21:55 | Vrbl 4 | 16.09 | Fair | CLR | 18 | -2 | 26% | 76.28 | 0.0 | |||||||
| 03 | 21:35 | Vrbl 9 | 16.09 | Fair | CLR | 18 | -2 | 26% | 76.25 | 0.0 | |||||||
| 03 | 21:15 | SW 17 G 26 | 16.09 | Fair | CLR | 19 | -2 | 24% | 76.2 | 0.0 | |||||||
| 03 | 20:55 | SW 22 G 31 | 16.09 | Fair | CLR | 19 | -3 | 22% | 76.17 | 0.0 | |||||||
| 03 | 20:35 | SW 19 G 28 | 16.09 | Fair | CLR | 20 | -3 | 21% | 76.17 | 0.0 | |||||||
| 03 | 20:15 | SW 22 G 35 | 16.09 | Fair | CLR | 20 | -3 | 21% | 76.15 | 0.0 | |||||||
| 03 | 19:55 | SW 20 G 31 | 16.09 | Fair | CLR | 21 | -3 | 20% | 76.12 | 0.0 | |||||||
| 03 | 19:35 | SW 20 G 26 | 16.09 | A Few Clouds | FEW100 | 21 | -2 | 21% | 76.1 | 0.0 | |||||||
| 03 | 19:15 | S 15 G 30 | 16.09 | A Few Clouds | FEW100 | 21 | -2 | 21% | 76.07 | 0.0 | |||||||
| Date | Time (mst) | Wind (kph) | Vis. (km) | Weather | Sky Cond. | Air | Dwpt | Max. | Min. | Relative Humidity | Wind Chill (°C) | Heat Index (°C) | altimeter (cm) | sea level (mb) | 1 hr | 3 hr | 6 hr |
| 6 hour | |||||||||||||||||
| Temperature (ºC) | Pressure | Precipitation (cm) | |||||||||||||||